N8QYG-1 Weather Reports


Display with metric or nautical units.
time (UTC)temp
F
wind
direction
speed
MPH
gust
MPH
rain 1hr
in
rain 24hr
in
rain mn
in
humidity
%
barometer
mb
20260503184021 63 252 11.0 13.0 0.00 0.02 0.02 3 1007.9
20260503183018 61 239 12.0 12.0 0.00 0.02 0.02 3 1007.9
20260503182018 61 279 8.0 8.0 0.00 0.02 0.02 3 1008.2
20260503181018 62 264 5.0 10.0 0.00 0.02 0.02 3 1008.5
20260503180018 61 253 13.0 14.0 0.00 0.02 0.02 3 1008.5
20260503175018 60 259 16.0 18.0 0.00 0.02 0.02 4 1008.8
20260503174019 59 237 5.0 9.0 0.00 0.02 0.02 4 1009.0
20260503173018 59 209 6.0 9.0 0.00 0.02 0.02 4 1009.0
20260503172019 60 263 17.0 19.0 0.00 0.02 0.02 4 1009.2
20260503171021 59 209 3.0 6.0 0.00 0.02 0.02 4 1009.6
20260503131018 47 204 2.0 3.0 0.00 0.01 0.01 5 1011.1
20260503081019 29 0 0.0 0.0 0.01 0.01 0.01 8 1012.1
20260503072019 30 0 0.0 0.0 0.00 0.00 0.00 8 1012.2
20260503071020 30 0 0.0 0.0 0.00 0.00 0.00 8 1012.3
20260503055021 33 0 0.0 1.0 0.00 0.00 0.00 7 1012.8
20260503054019 34 0 0.0 1.0 0.00 0.00 0.00 7 1012.8
20260503053019 34 0 0.0 0.0 0.00 0.00 0.00 7 1012.8
20260503052018 34 0 0.0 0.0 0.00 0.00 0.00 7 1012.8
20260503051019 35 0 0.0 0.0 0.00 0.00 0.00 7 1012.8
20260503050018 35 0 0.0 0.0 0.00 0.00 0.00 7 1012.8
20260503045019 35 0 0.0 0.0 0.00 0.00 0.00 7 1012.9
20260503044019 35 0 0.0 0.0 0.00 0.00 0.00 7 1012.9
20260503043021 35 0 0.0 0.0 0.00 0.00 0.00 7 1012.9
20260503042018 35 247 1.0 1.0 0.00 0.00 0.00 7 1013.0
20260503041018 35 0 0.0 1.0 0.00 0.00 0.00 7 1013.2
20260503040020 35 247 1.0 1.0 0.00 0.00 0.00 7 1013.2
20260503035019 35 247 1.0 1.0 0.00 0.00 0.00 7 1013.2
20260503034021 35 0 0.0 0.0 0.00 0.00 0.00 7 1013.2
20260503033019 35 247 1.0 1.0 0.00 0.00 0.00 7 1013.2
20260503032019 35 247 1.0 2.0 0.00 0.00 0.00 7 1013.3
20260503031019 36 0 0.0 0.0 0.00 0.00 0.00 7 1013.3
20260503030019 36 0 0.0 0.0 0.00 0.00 0.00 7 1013.3
20260503025020 36 0 0.0 0.0 0.00 0.00 0.00 7 1013.3
20260503024018 37 247 1.0 1.0 0.00 0.00 0.00 6 1013.4
20260503023019 37 0 0.0 0.0 0.00 0.00 0.00 6 1013.4
20260503022020 37 0 0.0 0.0 0.00 0.00 0.00 6 1013.4
20260503021019 38 0 0.0 0.0 0.00 0.00 0.00 6 1013.3
20260503020020 39 247 1.0 1.0 0.00 0.00 0.00 6 1013.3
20260503015019 39 0 0.0 0.0 0.00 0.00 0.00 6 1013.3
20260503014018 40 0 0.0 0.0 0.00 0.00 0.00 6 1013.2
20260503013020 41 0 0.0 0.0 0.00 0.00 0.00 5 1013.2
20260503012020 42 0 0.0 0.0 0.00 0.00 0.00 5 1013.2
20260503011019 43 0 0.0 0.0 0.00 0.00 0.00 5 1013.2
20260503010019 43 0 0.0 0.0 0.00 0.00 0.00 5 1013.2
20260503005020 44 247 1.0 1.0 0.00 0.00 0.00 5 1013.2
20260503004020 45 0 0.0 0.0 0.00 0.00 0.00 5 1013.1
20260503003019 46 0 0.0 1.0 0.00 0.00 0.00 4 1013.1
20260503002020 47 247 3.0 3.0 0.00 0.00 0.00 4 1013.0
20260503001021 47 257 1.0 1.0 0.00 0.00 0.00 4 1013.0
20260503000018 48 255 3.0 3.0 0.00 0.00 0.00 4 1013.0
20260502235021 47 293 4.0 5.0 0.00 0.00 0.00 4 1013.0
20260502234018 47 281 2.0 3.0 0.00 0.00 0.00 4 1013.1
20260502233021 47 273 2.0 2.0 0.00 0.00 0.00 4 1013.1
20260502232021 47 306 3.0 3.0 0.00 0.00 0.00 4 1013.2
20260502231019 47 296 3.0 4.0 0.00 0.00 0.00 4 1013.2
20260502230020 47 300 7.0 7.0 0.00 0.00 0.00 4 1013.2
20260502225018 47 302 2.0 5.0 0.00 0.00 0.00 4 1013.2
20260502224020 47 319 3.0 5.0 0.00 0.00 0.00 4 1013.2
20260502223019 47 274 6.0 7.0 0.00 0.00 0.00 4 1013.2
20260502222019 48 272 3.0 4.0 0.00 0.00 0.00 4 1013.2
20260502221020 48 286 3.0 3.0 0.00 0.00 0.00 4 1013.2
20260502220018 48 294 7.0 7.0 0.00 0.00 0.00 4 1013.2
20260502215020 48 300 8.0 9.0 0.00 0.00 0.00 4 1013.2
20260502214018 48 308 6.0 8.0 0.00 0.00 0.00 4 1013.2
20260502213021 48 318 3.0 6.0 0.00 0.00 0.00 4 1013.2
20260502212019 47 267 7.0 7.0 0.00 0.00 0.00 4 1013.3
20260502211020 47 288 8.0 9.0 0.00 0.00 0.00 4 1013.4
20260502210020 47 321 6.0 8.0 0.00 0.00 0.00 4 1013.4
20260502205020 47 277 6.0 6.0 0.00 0.00 0.00 4 1013.3
20260502204018 47 276 3.0 4.0 0.00 0.00 0.00 4 1013.5
20260502203022 47 284 6.0 6.0 0.00 0.00 0.00 4 1013.5
20260502202019 48 279 3.0 4.0 0.00 0.00 0.00 4 1013.6
20260502201019 47 284 3.0 4.0 0.00 0.00 0.00 4 1013.8
20260502200018 47 300 2.0 2.0 0.00 0.00 0.00 4 1013.8
20260502195020 47 332 3.0 4.0 0.00 0.00 0.00 4 1013.8
20260502194019 47 284 3.0 4.0 0.00 0.00 0.00 4 1013.9
20260502193019 48 284 9.0 9.0 0.00 0.00 0.00 4 1013.9
20260502192019 47 302 2.0 2.0 0.00 0.00 0.00 4 1014.2
20260502191018 47 271 4.0 4.0 0.00 0.00 0.00 4 1014.3
20260502190019 47 318 4.0 4.0 0.00 0.00 0.00 4 1014.3
20260502185020 47 17 5.0 6.0 0.00 0.00 0.00 4 1014.3